DW1970 Bodega Bay CA US current weather conditions

sailwx.info

Wind from 223 at 2 knots

Air temperature 14.4° C
Dewpoint 13.8° C

Last reported at 2017-Aug-23 19:07 UTC.
Time now 2017-Aug-23 19:42 UTC

Location: N 38°23' W 123°04'.
View on Google Maps.

See reports from other nearby stations

  
Tides and Currents Weather Stations Pressure Air Temp Water Temp Dewpoint Dewpoint Depression Visibility Wind Speed Wind Dir Waves Ship Positions
date/time (UTC)wind fromknots sea level pressurealtimeterstation pressurevisibilityair tempwater tempwave heightnotes
2017-Aug-23 19:07 223 2 14.4
2017-Aug-23 18:52 203 2 14.4
2017-Aug-23 18:37 189 1 14.4
2017-Aug-23 18:22 188 2 13.9
2017-Aug-23 18:07 186 2 13.3
2017-Aug-23 17:52 186 0 13.3
2017-Aug-23 17:37 186 12.8
2017-Aug-23 17:22 186 0 12.8
2017-Aug-23 17:07 186 12.2
2017-Aug-23 16:52 186 12.2
2017-Aug-23 16:37 186 0 12.2
2017-Aug-23 16:22 184 11.7
2017-Aug-23 16:07 184 0 11.7
2017-Aug-23 15:52 180 0 11.7
2017-Aug-23 15:22 178 0 11.7
2017-Aug-23 15:07 181 0 11.7
2017-Aug-23 14:52 149 11.1
2017-Aug-23 14:37 149 0 11.7
2017-Aug-23 14:22 149 1 11.1
2017-Aug-23 14:06 149 2 11.1
2017-Aug-23 13:51 219 1 11.7
2017-Aug-23 13:37 246 0 11.1
2017-Aug-23 13:21 247 11.7
2017-Aug-23 12:52 247 11.7
2017-Aug-23 12:37 247 11.7
2017-Aug-23 12:21 247 11.7
2017-Aug-23 12:06 247 11.7
2017-Aug-23 11:51 247 11.7
2017-Aug-23 11:36 247 0 12.2
2017-Aug-23 11:21 247 0 12.2
2017-Aug-23 11:06 247 0 12.2
2017-Aug-23 10:52 247 0 12.2
2017-Aug-23 10:36 275 12.2
2017-Aug-23 10:21 275 12.2
2017-Aug-23 10:06 275 0 12.2
2017-Aug-23 09:51 275 1 12.2
2017-Aug-23 09:36 275 1 12.2
2017-Aug-23 09:21 292 2 12.2
2017-Aug-23 09:06 273 1 12.2
2017-Aug-23 08:51 276 1 12.2
2017-Aug-23 08:36 276 0 12.2
2017-Aug-23 08:21 277 1 12.2
2017-Aug-23 08:06 287 2 12.2
2017-Aug-23 07:51 268 2 12.2
2017-Aug-23 07:36 273 4 12.2
2017-Aug-23 07:21 263 2 12.2
2017-Aug-23 07:06 277 3 12.2
2017-Aug-23 06:51 281 3 12.2
2017-Aug-23 06:36 300 4 12.2
2017-Aug-23 06:21 277 3 12.2
2017-Aug-23 06:06 273 2 12.8
2017-Aug-23 05:51 281 3 12.8
2017-Aug-23 05:36 281 5 12.8
2017-Aug-23 05:21 255 4 12.8
2017-Aug-23 05:05 289 4 12.8
2017-Aug-23 04:50 286 4 12.8
2017-Aug-23 04:35 263 5 12.8
2017-Aug-23 04:20 293 6 13.3
2017-Aug-23 04:06 273 6 13.3
2017-Aug-23 03:50 280 6 13.3
2017-Aug-23 03:35 265 5 13.3
2017-Aug-23 03:20 283 6 13.3
2017-Aug-23 03:05 273 6 13.9
2017-Aug-23 02:50 272 6 13.9
2017-Aug-23 02:35 288 6 14.4
2017-Aug-23 02:20 289 8 15.0
2017-Aug-23 02:05 278 5 15.6
2017-Aug-23 01:49 269 5 15.6
2017-Aug-23 01:34 275 4 16.1
2017-Aug-23 01:19 267 5 16.1
2017-Aug-23 00:49 261 6 16.1
2017-Aug-23 00:34 272 6 16.1
2017-Aug-23 00:19 288 7 16.7
2017-Aug-22 23:49 279 6 17.2
2017-Aug-22 23:34 288 6 17.2
2017-Aug-22 23:18 276 6 17.8
2017-Aug-22 23:03 290 7 17.2
2017-Aug-22 22:48 284 6 17.2
2017-Aug-22 22:33 286 6 17.8
2017-Aug-22 22:03 275 5 17.8
2017-Aug-22 21:48 244 5 16.7
2017-Aug-22 21:33 292 5 16.7
2017-Aug-22 21:18 276 5 16.7
2017-Aug-22 20:48 256 4 16.1
2017-Aug-22 20:33 260 4 16.1
2017-Aug-22 20:18 277 3 16.1
2017-Aug-22 20:03 267 3 16.1
2017-Aug-22 19:48 227 4 15.6
2017-Aug-22 19:32 286 3 16.1
2017-Aug-22 19:17 254 3 15.6
2017-Aug-22 19:02 259 3 15.6
2017-Aug-22 18:47 256 3 15.6
2017-Aug-22 18:32 269 3 15.0
2017-Aug-22 18:17 259 2 15.0
2017-Aug-22 18:02 285 2 15.0
2017-Aug-22 17:47 286 3 15.0
2017-Aug-22 17:32 290 1 14.4
2017-Aug-22 17:02 296 1 14.4
2017-Aug-22 16:47 301 1 14.4
2017-Aug-22 16:31 301 0 14.4
2017-Aug-22 16:17 301 1 13.9
2017-Aug-22 16:01 301 13.9
2017-Aug-22 15:46 301 0 13.9
2017-Aug-22 15:31 301 0 13.9
2017-Aug-22 15:01 301 0 13.9
2017-Aug-22 14:47 301 13.9
2017-Aug-22 14:01 301 0 13.3
2017-Aug-22 13:46 300 2 13.3
2017-Aug-22 13:31 300 2 13.9
2017-Aug-22 13:15 300 13.9
2017-Aug-22 13:00 300 13.9
2017-Aug-22 12:45 300 0 13.9
2017-Aug-22 12:30 300 13.9
2017-Aug-22 12:15 300 13.9
2017-Aug-22 12:00 300 0 13.9
2017-Aug-22 11:45 300 0 13.9
2017-Aug-22 11:30 300 13.9
2017-Aug-22 11:15 300 0 13.9
2017-Aug-22 11:00 300 0 13.9
2017-Aug-22 10:45 300 0 13.9
2017-Aug-22 10:30 300 3 13.9
2017-Aug-22 10:15 300 3 13.9
2017-Aug-22 10:00 260 2 13.9
2017-Aug-22 09:45 213 0 14.4
2017-Aug-22 09:14 212 14.4
2017-Aug-22 08:59 212 14.4
2017-Aug-22 08:44 212 14.4
2017-Aug-22 08:29 212 14.4
2017-Aug-22 08:14 212 14.4
2017-Aug-22 07:59 212 14.4
2017-Aug-22 07:44 212 14.4
2017-Aug-22 07:29 212 14.4
2017-Aug-22 07:14 212 14.4
2017-Aug-22 06:59 212 14.4
2017-Aug-22 06:29 212 14.4
2017-Aug-22 06:14 212 14.4
2017-Aug-22 05:59 212 14.4
2017-Aug-22 05:44 212 1 14.4
2017-Aug-22 05:14 209 15.0
2017-Aug-22 05:00 209 0 15.0
2017-Aug-22 04:44 209 1 15.0
2017-Aug-22 04:29 209 0 15.0
2017-Aug-22 04:14 186 15.0
2017-Aug-22 03:59 186 0 15.0
2017-Aug-22 03:44 180 15.0
2017-Aug-22 03:34 180 15.0
2017-Aug-22 03:21 180 15.0
2017-Aug-22 02:59 180 15.6
2017-Aug-22 02:43 180 15.6
2017-Aug-22 02:28 180 0 15.6
2017-Aug-22 02:13 180 15.6
2017-Aug-22 01:58 180 16.1
2017-Aug-22 01:43 180 0 16.1
2017-Aug-22 01:28 178 0 16.1
2017-Aug-22 01:13 176 16.1
2017-Aug-22 00:58 176 0 16.1
2017-Aug-22 00:43 177 0 16.1
2017-Aug-22 00:28 178 1 16.7
2017-Aug-22 00:13 180 0 16.7
2017-Aug-21 23:58 194 0 16.7
2017-Aug-21 23:43 197 1 16.7
2017-Aug-21 23:27 196 1 16.7
2017-Aug-21 23:13 194 2 17.2
2017-Aug-21 22:58 170 3 17.2
2017-Aug-21 22:42 157 5 17.2
2017-Aug-21 22:27 161 5 17.2
2017-Aug-21 22:12 155 3 17.2
2017-Aug-21 21:57 161 3 16.7
2017-Aug-21 21:42 165 3 16.7
2017-Aug-21 21:27 186 3 16.7
2017-Aug-21 21:12 163 3 16.1
2017-Aug-21 20:57 165 3 16.1
2017-Aug-21 20:42 171 3 16.1
2017-Aug-21 20:27 161 3 15.6
2017-Aug-21 20:12 169 3 15.6
2017-Aug-21 19:57 167 2 15.6
2017-Aug-21 19:42 167 1 15.0
2017-Aug-21 19:27 167 15.0
2017-Aug-21 19:12 167 0 15.0